Location: �clusier
(49.9361°N, 2.7869°E)
Time: 07:58:44
(UTC+00:00)

Iridium 2 - Pass Details

Date: 16 June 2021
Orbit: 502 x 511 km, 85.5° (Epoch: 02 August)

Event Time Altitude Azimuth Distance (km) Brightness Sun altitude
Exits shadow 23:23:09 26° 219° (SW) 1,041 4.8 -16.4°
Maximum altitude 23:24:57 46° 279° (W) 687 4.4 -16.5°
Drops below altitude 10° 23:28:36 10° 354° (N) 1,730 7.7 -16.5°
Sets 23:30:47 0° 1° (N) 2,619 9.1 -16.6°
